Location: Majestic Skies Ranch
(34.0000°N, 105.9300°W)
Time: 13:03:33
(UTC-07:00)

ISS - Visible Passes

Search period start: 06 March 2015 00:00
Search period end: 16 March 2015 01:00
Orbit: 396 x 408 km, 51.6° (Epoch: 06 March)

Date Brightness Start Highest point End Pass type
(mag) Time Alt. Az. Time Alt. Az. Time Alt. Az.
08 Mar -2.4 06:52:06 10° SSW 06:55:13 49° SE 06:58:21 10° ENE visible
09 Mar -1.0 05:59:49 10° S 06:02:21 22° SE 06:04:56 10° ENE visible
10 Mar -0.1 05:09:40 10° SE 05:09:40 10° SE 05:09:47 10° ESE visible
10 Mar -3.2 06:42:26 10° WSW 06:45:36 54° NW 06:48:47 10° NE visible
11 Mar -3.1 05:52:01 51° S 05:52:35 63° SE 05:55:47 10° NE visible
12 Mar -0.3 05:01:32 16° E 05:01:32 16° E 05:02:25 10° ENE visible
12 Mar -1.9 06:34:10 15° W 06:36:02 23° NW 06:38:40 10° NNE visible
13 Mar -2.4 05:43:29 37° N 05:43:29 37° N 05:45:56 10° NE visible
14 Mar 0.1 04:52:41 12° NE 04:52:41 12° NE 04:52:55 10° NE visible
14 Mar -1.0 06:25:17 10° NW 06:26:30 12° NNW 06:27:49 10° N visible
15 Mar -1.0 05:34:21 16° N 05:34:21 16° N 05:35:32 10° NNE visible
